DW0708 Weather Reports


time (UTC)temp
C
wind
direction
speed
KPH
gust
KPH
rain 1hr
cm
rain 24hr
cm
rain mn
cm
humidity
%
barometer
mb
20260502152010 18 347 4.8 19.3 0.00 2.97 0.03 77 1021.1
20260502151525 17 21 4.8 14.5 0.00 2.97 0.03 82 1021.1
20260502151012 17 0 3.2 11.3 0.00 2.97 0.03 86 1021.1
20260502150512 16 60 0.0 11.3 0.00 2.97 0.03 90 1021.1
20260502130509 10 0 0.0 0.0 0.00 5.41 0.03 96 1020.1
20260502123508 10 0 0.0 3.2 0.00 6.60 0.03 95 1019.4
20260502123033 10 0 0.0 3.2 0.00 6.60 0.03 95 1019.2
20260502122511 10 306 0.0 3.2 0.00 6.60 0.03 95 1019.2
20260502122011 10 0 0.0 3.2 0.00 6.60 0.03 95 1019.2
20260502121527 10 0 0.0 0.0 0.00 6.60 0.03 95 1019.0
20260502121010 10 0 0.0 0.0 0.00 6.60 0.03 95 1018.8
20260502120511 10 0 0.0 0.0 0.00 6.60 0.03 95 1018.8
20260502115511 10 0 0.0 1.6 0.00 7.52 0.03 95 1018.8
20260502115012 10 0 0.0 1.6 0.00 7.52 0.03 95 1018.6
20260502114528 10 0 0.0 0.0 0.00 7.52 0.03 95 1018.6
20260502114012 10 0 0.0 0.0 0.00 7.52 0.03 95 1018.6
20260502113513 10 0 0.0 0.0 0.00 7.52 0.03 95 1018.6
20260502113027 10 0 0.0 0.0 0.00 7.52 0.03 95 1018.5
20260502112530 10 0 0.0 0.0 0.00 7.52 0.03 95 1018.6
20260502112013 10 0 0.0 0.0 0.00 7.52 0.03 95 1018.6
20260502111529 10 0 0.0 0.0 0.00 7.52 0.03 95 1018.4
20260502111013 10 0 0.0 1.6 0.00 7.52 0.03 95 1018.4
20260502110510 10 0 0.0 1.6 0.00 7.52 0.03 95 1018.2
20260502110029 10 0 0.0 1.6 0.00 7.52 0.03 95 1018.2
20260502105513 10 0 0.0 1.6 0.00 8.10 0.03 95 1018.2
20260502105015 10 0 0.0 1.6 0.00 8.10 0.03 95 1018.2
20260502104527 10 0 0.0 1.6 0.00 8.10 0.03 95 1018.1
20260502104013 10 0 0.0 1.6 0.00 8.10 0.03 95 1018.0
20260502103510 10 0 0.0 1.6 0.00 8.10 0.03 95 1018.1
20260502103032 10 0 0.0 1.6 0.00 8.10 0.03 95 1018.0
20260502102514 10 0 0.0 3.2 0.00 8.10 0.03 95 1018.0
20260502102014 10 0 0.0 3.2 0.00 8.10 0.03 95 1017.9
20260502101540 10 0 0.0 3.2 0.00 8.10 0.03 95 1017.8
20260502101013 10 0 0.0 1.6 0.00 8.10 0.03 95 1017.9
20260502100516 10 0 0.0 3.2 0.00 8.10 0.03 95 1017.8
20260502091528 11 0 0.0 4.8 0.00 8.84 0.03 95 1017.0
20260502091011 11 0 0.0 6.4 0.00 8.84 0.03 95 1016.9
20260502090512 11 0 0.0 6.4 0.00 8.84 0.03 95 1016.8
20260502071529 11 360 1.6 9.7 0.00 9.37 0.03 95 1016.6
20260502071011 11 0 1.6 8.0 0.00 9.37 0.03 95 1016.7
20260502070517 11 0 1.6 6.4 0.00 9.37 0.03 95 1016.8
20260502070028 11 319 0.0 12.9 0.00 9.37 0.03 95 1016.7
20260502065512 11 0 1.6 12.9 0.00 9.40 0.03 95 1016.8
20260502065014 11 1 0.0 16.1 0.00 9.40 0.03 95 1016.8
20260502064526 11 311 1.6 16.1 0.00 9.40 0.03 95 1016.8
20260502064012 11 0 3.2 16.1 0.00 9.40 0.03 95 1016.6
20260502063510 11 333 4.8 16.1 0.00 9.40 0.03 95 1016.6
20260502063030 11 0 1.6 12.9 0.00 9.40 0.03 95 1016.5
20260502062511 11 0 1.6 12.9 0.00 9.40 0.03 95 1016.5
20260502062016 11 0 0.0 11.3 0.00 9.40 0.03 96 1016.5
20260502061529 11 0 0.0 12.9 0.00 9.40 0.03 96 1016.4
20260502061011 11 0 1.6 12.9 0.00 9.40 0.03 95 1016.4
20260502060513 11 7 1.6 12.9 0.00 9.40 0.03 95 1016.2
20260502060027 11 0 1.6 12.9 0.03 9.40 0.03 95 1016.4
20260502055511 11 1 1.6 19.3 0.03 9.58 0.03 95 1016.5
20260502055016 11 21 6.4 19.3 0.03 9.58 0.03 95 1016.5
20260502054527 11 29 3.2 16.1 0.03 9.58 0.03 95 1016.4
20260502054010 11 37 1.6 19.3 0.03 9.58 0.03 95 1016.4
20260502053514 12 84 4.8 19.3 0.03 9.58 0.03 95 1016.5
20260502053030 12 43 3.2 19.3 0.03 9.58 0.03 96 1016.7
20260502052513 12 0 3.2 19.3 0.03 9.58 0.03 95 1016.5
20260502052013 12 0 4.8 19.3 0.03 9.58 0.03 95 1016.5
20260502051529 12 344 6.4 19.3 0.03 9.58 0.03 96 1016.5
20260502051010 12 359 6.4 22.5 0.03 9.58 0.03 96 1016.5
20260502050511 12 6 4.8 22.5 0.03 9.58 0.03 96 1016.5
20260502050037 12 6 3.2 22.5 0.00 9.55 0.00 96 1016.5
20260502045512 12 37 3.2 19.3 0.00 9.63 9.55 96 1016.3
20260502045017 12 349 3.2 17.7 0.00 9.63 9.55 95 1016.3
20260502044531 12 0 1.6 17.7 0.00 9.63 9.55 95 1016.3
20260502044012 12 352 0.0 14.5 0.00 9.63 9.55 95 1016.3
20260502043512 12 18 4.8 14.5 0.00 9.63 9.55 95 1016.3
20260502043027 12 0 1.6 14.5 0.00 9.63 9.55 95 1016.2
20260502042513 12 0 1.6 12.9 0.00 9.63 9.55 96 1016.2
20260502042016 12 0 1.6 12.9 0.00 9.63 9.55 96 1016.2
20260502041537 12 323 0.0 20.9 0.00 9.63 9.55 96 1016.2
20260502041013 12 0 1.6 20.9 0.00 9.63 9.55 96 1016.1
20260502040512 12 33 4.8 17.7 0.00 9.63 9.55 96 1016.3
20260502040026 12 0 4.8 14.5 0.00 9.63 9.55 96 1016.3
20260502035513 12 0 3.2 12.9 0.00 9.63 9.55 96 1016.4
20260502035013 12 0 0.0 16.1 0.00 9.63 9.55 96 1016.4
20260502034528 12 0 0.0 16.1 0.00 9.63 9.55 96 1016.4
20260502034011 12 0 4.8 19.3 0.00 9.63 9.55 96 1016.3
20260502033514 12 263 1.6 19.3 0.00 9.63 9.55 96 1016.4
20260502033031 12 0 4.8 19.3 0.00 9.63 9.55 96 1016.3
20260502032515 12 0 1.6 11.3 0.00 9.63 9.55 96 1016.2
20260502032014 12 0 3.2 11.3 0.00 9.63 9.55 96 1016.2
20260502031530 12 0 0.0 11.3 0.00 9.63 9.55 96 1016.1
20260502031010 12 0 1.6 11.3 0.00 9.63 9.55 96 1016.0
20260502030512 12 0 1.6 14.5 0.00 9.63 9.55 96 1015.9
20260502030030 12 0 1.6 16.1 0.00 9.63 9.55 95 1015.9
20260502025510 12 32 3.2 16.1 0.00 9.63 9.55 95 1015.7
20260502025012 12 356 0.0 8.0 0.00 9.63 9.55 96 1015.5
20260502024529 12 6 0.0 9.7 0.00 9.63 9.55 96 1015.3
20260502024013 12 0 1.6 19.3 0.00 9.63 9.55 95 1014.9
20260502023513 12 0 0.0 19.3 0.00 9.63 9.55 95 1014.6
20260502023029 12 0 4.8 19.3 0.00 9.63 9.55 95 1014.6
20260502022511 12 25 1.6 22.5 0.03 9.63 9.55 95 1014.9
20260502022014 12 0 1.6 22.5 0.03 9.63 9.55 95 1014.7
20260502021527 12 46 3.2 22.5 0.03 9.63 9.55 95 1014.7
20260502021012 12 0 4.8 22.5 0.03 9.63 9.55 95 1014.9
20260502020510 12 8 3.2 14.5 0.03 9.63 9.55 95 1014.9
20260502020030 12 345 3.2 16.1 0.03 9.63 9.55 95 1014.7
20260502015513 12 0 1.6 16.1 0.05 9.63 9.55 96 1014.7
20260502015015 13 45 1.6 16.1 0.05 9.63 9.55 95 1014.6
20260502014530 13 0 1.6 20.9 0.05 9.63 9.55 95 1014.4
20260502014012 13 0 6.4 20.9 0.08 9.63 9.55 95 1014.2
20260502013512 13 0 3.2 14.5 0.13 9.63 9.55 95 1014.0
20260502013029 13 0 3.2 14.5 0.15 9.63 9.55 95 1013.9
20260502012515 13 1 3.2 14.5 0.13 9.60 9.53 95 1013.9
20260502012011 13 19 1.6 12.9 0.15 9.60 9.53 95 1014.1
20260502011527 13 273 0.0 11.3 0.15 9.60 9.53 95 1014.5
20260502011012 13 0 0.0 11.3 0.18 9.60 9.53 96 1014.6
20260502010512 13 0 0.0 11.3 0.20 9.60 9.53 96 1014.5
20260502010030 13 50 1.6 9.7 0.18 9.58 9.50 96 1014.3
20260502005512 13 0 0.0 20.9 0.20 9.58 9.50 95 1013.6
20260502005011 13 8 3.2 20.9 0.23 9.58 9.50 95 1013.2
20260502004530 13 28 3.2 20.9 0.25 9.58 9.50 96 1013.0
20260502004011 14 2 4.8 20.9 0.25 9.53 9.45 96 1012.9
20260502003513 14 0 4.8 20.9 0.25 9.50 9.42 95 1013.0
20260502003027 14 29 0.0 9.7 0.23 9.47 9.40 96 1013.3
20260502002510 14 0 0.0 8.0 0.25 9.45 9.37 96 1013.7
20260502002014 14 0 0.0 9.7 0.28 9.45 9.37 96 1013.8
20260502001528 14 360 1.6 11.3 0.30 9.42 9.35 96 1013.6
20260502001011 14 0 0.0 11.3 0.33 9.42 9.35 96 1013.3
20260502000511 14 25 0.0 11.3 0.33 9.40 9.32 96 1013.5
20260502000029 14 0 0.0 8.0 0.36 9.40 9.32 96 1013.4
20260501235512 14 0 0.0 8.0 0.38 9.37 9.30 96 1012.8
20260501235010 14 0 0.0 8.0 0.41 9.35 9.27 96 1012.9
20260501234528 14 0 0.0 12.9 0.51 9.32 9.25 96 1013.4
20260501234011 14 359 1.6 12.9 0.56 9.27 9.19 96 1013.3
20260501233513 14 17 0.0 8.0 0.53 9.25 9.17 96 1012.7
20260501233028 14 0 0.0 11.3 0.51 9.22 9.14 96 1012.7
20260501232511 14 1 0.0 11.3 0.48 9.19 9.12 96 1012.8
20260501232009 14 0 1.6 11.3 0.43 9.14 9.07 96 1012.1
20260501231546 14 344 1.6 11.3 0.41 9.12 9.04 96 1011.5
20260501231010 14 105 0.0 11.3 0.38 9.09 9.02 96 1012.0
20260501230513 14 90 1.6 11.3 0.36 9.07 8.99 96 1012.0
20260501230027 14 0 1.6 12.9 0.33 9.04 8.97 96 1011.8
20260501225512 14 82 1.6 16.1 0.28 8.99 8.92 95 1011.9
20260501225014 14 26 3.2 17.7 0.23 8.92 8.84 95 1012.3
20260501224527 15 39 6.4 17.7 0.13 8.79 8.71 95 1011.2
20260501224010 15 22 4.8 17.7 0.10 8.71 8.64 96 1010.2
20260501223515 15 30 1.6 17.7 0.15 8.71 8.64 96 1010.7
20260501223039 15 50 3.2 24.1 0.20 8.71 8.64 95 1010.6
20260501222510 15 0 3.2 24.1 0.25 8.71 8.64 95 1010.2
20260501222013 15 18 1.6 24.1 0.30 8.71 8.64 95 1010.2
20260501221528 15 338 1.6 24.1 0.36 8.71 8.64 96 1010.6
20260501221010 15 8 3.2 24.1 0.36 8.71 8.64 96 1011.0
20260501220511 15 0 0.0 22.5 0.38 8.71 8.64 96 1011.2
20260501220029 15 0 1.6 17.7 0.41 8.71 8.64 96 1011.5
20260501215511 15 0 1.6 17.7 0.38 8.69 8.61 96 1011.6
20260501215012 15 0 0.0 16.1 0.41 8.69 8.61 96 1012.1
20260501214530 15 18 0.0 17.7 0.38 8.64 8.56 96 1012.2
20260501214012 15 0 1.6 19.3 0.38 8.61 8.53 96 1012.0
20260501213511 15 0 1.6 19.3 0.33 8.56 8.48 96 1012.0
20260501213033 15 60 3.2 17.7 0.30 8.51 8.43 95 1011.7
20260501212511 15 329 3.2 14.5 0.25 8.43 8.36 96 1011.7
20260501212012 15 34 3.2 14.5 0.23 8.38 8.31 96 1011.7
20260501211527 15 352 0.0 9.7 0.23 8.36 8.28 96 1011.8
20260501211016 15 333 0.0 9.7 0.28 8.36 8.28 96 1011.5
20260501210510 15 31 1.6 17.7 0.28 8.33 8.26 96 1010.9
20260501210033 15 0 0.0 17.7 0.28 8.31 8.23 95 1010.7
20260501205511 15 1 6.4 17.7 0.25 8.28 8.20 95 1010.1
20260501205013 15 11 1.6 16.1 0.23 8.26 8.18 96 1010.2
20260501204533 15 46 4.8 16.1 0.25 8.26 8.18 96 1011.0
20260501204012 15 34 4.8 16.1 0.25 8.23 8.15 96 1011.0
20260501203511 15 352 1.6 30.6 0.25 8.20 8.13 96 1011.1
20260501203031 15 227 6.4 30.6 0.25 8.20 8.13 95 1010.8
20260501202513 15 345 6.4 19.3 0.25 8.18 8.10 95 1010.3
20260501202015 16 1 1.6 22.5 0.30 8.15 8.08 95 1010.2
20260501201528 16 346 6.4 22.5 0.25 8.10 8.03 96 1010.0
20260501201012 16 359 6.4 14.5 0.23 8.08 8.00 96 1010.2
20260501200512 16 4 1.6 12.9 0.20 8.05 7.98 96 1011.0
20260501200027 16 37 3.2 12.9 0.18 8.03 7.95 95 1010.8
20260501195512 16 311 3.2 11.3 0.18 8.03 7.95 95 1011.1
20260501195012 16 359 0.0 14.5 0.18 8.03 7.95 96 1011.3
20260501194526 16 0 1.6 14.5 0.15 8.00 7.92 96 1011.2
20260501194010 16 10 3.2 14.5 0.13 7.98 7.90 96 1010.8
20260501193510 16 348 3.2 11.3 0.10 7.95 7.87 95 1010.7
20260501193031 16 360 1.6 11.3 0.10 7.95 7.87 96 1010.6
20260501192511 16 0 0.0 8.0 0.08 7.92 7.85 96 1010.5
20260501192010 16 46 3.2 8.0 0.00 7.85 7.77 96 1010.4
20260501191532 16 348 0.0 11.3 0.03 7.85 7.77 96 1010.9
20260501191011 16 0 0.0 11.3 0.03 7.85 7.77 96 1010.7
20260501190513 16 0 1.6 12.9 0.03 7.85 7.77 96 1010.3
20260501190030 16 7 3.2 14.5 0.05 7.85 7.77 95 1010.3
20260501185511 16 0 3.2 14.5 0.05 7.85 7.77 96 1009.7
20260501185013 16 37 3.2 12.9 0.05 7.85 7.77 96 1009.6
20260501184527 16 23 1.6 14.5 0.08 7.85 7.77 96 1010.2
20260501184012 16 0 1.6 17.7 0.08 7.85 7.77 96 1010.4
20260501183511 16 0 0.0 17.7 0.10 7.85 7.77 96 1010.6
20260501183033 16 0 3.2 17.7 0.13 7.85 7.77 96 1009.9
20260501182509 16 49 0.0 9.7 0.13 7.85 7.77 96 1009.6
20260501182011 16 0 0.0 16.1 0.15 7.85 7.77 95 1009.4
20260501181534 16 0 1.6 19.3 0.13 7.82 7.75 96 1008.0
20260501181011 16 0 0.0 19.3 0.13 7.82 7.75 96 1008.9
20260501180512 16 338 3.2 16.1 0.13 7.80 7.72 96 1008.9
20260501180029 16 0 4.8 19.3 0.13 7.80 7.72 96 1008.1
20260501175511 16 0 1.6 19.3 0.13 7.80 7.72 95 1009.3
20260501175010 16 25 3.2 19.3 0.13 7.80 7.72 96 1010.1
20260501174535 16 0 1.6 19.3 0.10 7.77 7.70 96 1010.5
20260501174012 16 1 3.2 14.5 0.10 7.77 7.70 96 1010.5
20260501173511 16 8 1.6 20.9 0.08 7.75 7.67 96 1011.0
20260501173026 16 340 4.8 20.9 0.08 7.72 7.65 95 1011.3
20260501172509 16 44 1.6 16.1 0.08 7.72 7.65 96 1011.8
20260501172012 16 0 1.6 12.9 0.10 7.70 7.62 96 1011.7
20260501171533 16 0 1.6 12.9 0.15 7.70 7.62 96 1011.7
20260501171011 16 345 0.0 8.0 0.20 7.70 7.62 95 1011.5
20260501170516 16 0 1.6 9.7 0.20 7.67 7.59 95 1011.7
20260501170028 16 0 1.6 14.5 0.25 7.67 7.59 95 1011.5
20260501165515 16 6 3.2 14.5 0.28 7.67 7.59 96 1011.3
20260501165014 16 33 1.6 12.9 0.33 7.67 7.59 96 1011.5
20260501164534 16 0 1.6 12.9 0.43 7.67 7.59 96 1011.9
20260501164016 16 14 3.2 19.3 0.53 7.67 7.59 96 1012.2
20260501163509 16 0 4.8 19.3 0.69 7.67 7.59 95 1012.3
20260501163029 16 7 4.8 12.9 0.81 7.65 7.57 95 1012.6
20260501162509 16 40 3.2 12.9 0.89 7.62 7.54 95 1013.0
20260501162011 16 7 1.6 16.1 0.89 7.57 7.49 95 1013.2
20260501161530 16 8 3.2 16.1 0.89 7.54 7.47 96 1013.4
20260501161012 16 0 3.2 16.1 0.84 7.49 7.42 95 1013.2
20260501160510 16 326 1.6 16.1 0.81 7.47 7.39 95 1013.2
20260501160028 16 315 3.2 14.5 0.76 7.42 7.34 95 1013.3
20260501155513 16 307 3.2 16.1 0.71 7.37 7.29 95 1013.4
20260501155016 16 1 3.2 16.1 0.66 7.32 7.24 95 1013.7
20260501154527 16 359 3.2 14.5 0.58 7.21 7.14 95 1013.6
20260501154013 16 0 0.0 11.3 0.48 7.11 7.04 95 1013.9